This is the latest recevied weather packets stored in our database for station/object K0APR. If no packets are shown the sender has not sent any weather packets the latest 1 day(s).
| Time | Temp. | Humidity | Pressure | Rain* | Wind** | Luminosity | Snow |
|---|---|---|---|---|---|---|---|
| 1778048135 | 4.44° C | 60% | 1015.1 hPa | 0 mm | 2.24 m/s, 320° | 0 W/m² | - |
| 1778047833 | 4.44° C | 60% | 1015.5 hPa | 0 mm | 2.68 m/s, 334° | 0 W/m² | - |
| 1778047531 | 4.44° C | 60% | 1014.7 hPa | 0 mm | 1.79 m/s, 321° | 0 W/m² | - |
| 1778047228 | 4.44° C | 60% | 1015.1 hPa | 0 mm | 2.68 m/s, 307° | 0 W/m² | - |
| 1778046925 | 4.44° C | 59% | 1015.1 hPa | 0 mm | 2.24 m/s, 344° | 0 W/m² | - |
| 1778046621 | 4.44° C | 59% | 1015.5 hPa | 0 mm | 2.24 m/s, 326° | 0 W/m² | - |
| 1778046319 | 4.44° C | 59% | 1015.5 hPa | 0 mm | 2.24 m/s, 322° | 0 W/m² | - |
| 1778046014 | 4.44° C | 59% | 1015.1 hPa | 0 mm | 1.79 m/s, 318° | 0 W/m² | - |
| 1778045713 | 4.44° C | 59% | 1015.5 hPa | 0 mm | 1.79 m/s, 323° | 0 W/m² | - |
| 1778045411 | 4.44° C | 58% | 1015.5 hPa | 0 mm | 1.79 m/s, 312° | 0 W/m² | - |
| 1778045109 | 4.44° C | 58% | 1015.5 hPa | 0 mm | 1.79 m/s, 314° | 0 W/m² | - |
| 1778044806 | 4.44° C | 58% | 1015.1 hPa | 0 mm | 1.79 m/s, 318° | 0 W/m² | - |
| 1778044503 | 4.44° C | 58% | 1015.1 hPa | 0 mm | 0.89 m/s, 321° | 0 W/m² | - |
| 1778044200 | 4.44° C | 58% | 1015.1 hPa | 0 mm | 1.79 m/s, 316° | 0 W/m² | - |
| 1778043898 | 4.44° C | 58% | 1015.1 hPa | 0 mm | 1.79 m/s, 326° | 0 W/m² | - |
| 1778043595 | 4.44° C | 57% | 1014.7 hPa | 0 mm | 2.68 m/s, 324° | 0 W/m² | - |
| 1778043291 | 4.44° C | 57% | 1015.1 hPa | 0 mm | 2.24 m/s, 321° | 0 W/m² | - |
| 1778042988 | 4.44° C | 57% | 1015.1 hPa | 0 mm | 2.24 m/s, 324° | 0 W/m² | - |
| 1778042686 | 5° C | 57% | 1015.5 hPa | 0 mm | 1.34 m/s, 316° | 0 W/m² | - |
| 1778042382 | 5° C | 57% | 1015.1 hPa | 0 mm | 1.79 m/s, 314° | 0 W/m² | - |
| 1778042080 | 5° C | 57% | 1015.5 hPa | 0 mm | 1.34 m/s, 327° | 0 W/m² | - |
| 1778041777 | 5° C | 56% | 1015.1 hPa | 0 mm | 1.34 m/s, 334° | 0 W/m² | - |
| 1778041477 | 5° C | 57% | 1015.1 hPa | 0 mm | 1.79 m/s, 332° | 0 W/m² | - |
| 1778041174 | 5° C | 57% | 1015.1 hPa | 0 mm | 2.24 m/s, 323° | 0 W/m² | - |
| 1778040872 | 5° C | 57% | 1015.1 hPa | 0 mm | 1.34 m/s, 319° | 0 W/m² | - |
* Rain latest hour (hover to see other rain measurements)
** Current wind speed in m/s (hover to see current wind gust speed)